Theta_e
328 316 313 311 300 298 294 301 309 309 308 311 319 330 327 329 327 319 344 350 358 358 360 362 363 363 363 362 361 361 360 360 360 361 361 361 361 361 361 360 360 359 356 353 352 353 353 354 353
324 316 311 305 296 291 295 304 306 310 311 314 328 330 328 325 337 342 345 355 358 359 359 359 363 362 362 361 360 360 360 360 360 361 361 361 361 361 360 359 359 356 353 351 352 353 354 354 353
314 315 303 298 294 292 295 304 309 314 318 314 315 327 329 328 341 342 350 355 358 357 358 359 362 362 362 361 360 360 360 360 360 361 361 361 361 360 360 360 358 354 351 351 352 353 353 354 353
308 305 302 295 294 301 302 305 309 311 319 315 322 323 333 343 339 346 354 355 354 355 358 363 362 361 362 361 360 360 360 360 360 361 360 360 359 359 359 358 357 355 351 350 351 353 354 353 352
303 299 293 291 295 301 305 307 309 315 312 312 324 324 329 340 347 351 351 351 352 354 358 361 363 362 362 361 361 360 360 359 360 360 360 360 359 359 358 358 356 354 351 350 350 351 353 353 351
297 297 290 289 294 303 306 306 308 315 313 313 325 325 326 343 344 347 350 348 354 354 357 360 363 362 361 361 360 360 360 359 359 360 360 359 359 358 358 357 356 354 352 351 349 350 349 347 345
296 292 290 293 296 298 304 305 304 306 313 312 324 318 319 329 343 347 347 347 354 355 354 357 359 361 363 361 360 359 359 359 359 359 358 358 358 358 357 356 355 354 351 351 349 348 346 345 343
299 294 289 292 295 296 304 304 301 306 310 320 320 311 310 317 336 342 345 349 352 353 352 354 356 358 358 359 361 360 359 359 358 358 358 358 357 357 356 354 354 354 351 350 349 348 346 345 343
299 290 287 292 296 298 303 301 307 308 311 312 315 316 318 322 321 342 346 348 350 351 350 353 355 356 357 357 360 360 361 360 359 358 358 355 353 353 353 353 354 354 352 350 350 349 347 346 345
294 288 291 299 300 299 303 299 303 304 304 308 311 316 317 317 314 318 340 343 346 346 347 349 351 352 354 358 357 357 358 358 356 356 355 352 349 349 351 351 354 354 353 351 350 349 348 347 335
294 291 297 301 303 301 300 301 303 302 300 304 305 308 309 311 311 311 319 341 346 348 347 347 349 351 351 353 354 355 356 356 355 354 353 351 348 348 349 346 347 346 351 343 345 344 341 337 333
290 297 299 301 303 302 301 303 302 301 303 307 307 309 308 306 306 308 309 314 325 345 346 345 346 346 347 351 352 352 353 353 352 353 352 349 346 344 345 344 341 340 340 337 336 336 336 336 333
292 297 299 302 302 301 302 301 302 302 306 307 307 309 306 306 306 306 307 308 311 334 344 343 344 344 344 346 349 349 349 351 351 351 351 351 347 344 344 341 339 340 337 337 333 332 332 331 330
297 298 299 300 300 299 299 301 301 304 307 306 305 304 305 306 306 307 305 307 325 336 340 342 343 343 340 344 344 344 345 348 348 350 351 351 349 346 342 340 339 338 337 338 335 331 330 328 329
298 294 297 298 299 298 301 297 298 304 305 304 304 304 305 305 305 305 306 307 311 337 342 343 344 346 347 348 348 345 343 342 343 344 348 350 349 345 343 340 339 337 336 335 333 329 329 329 330
295 293 288 295 299 301 299 293 300 303 303 302 303 304 307 306 307 308 308 310 321 336 338 341 347 342 345 340 335 349 349 344 342 341 342 343 346 347 343 341 340 339 337 335 332 328 325 329 330
291 287 290 295 299 298 296 294 300 303 302 301 303 303 304 305 306 307 311 319 323 330 336 334 334 338 336 332 335 346 349 348 345 341 340 341 341 343 345 343 342 339 337 333 332 330 327 326 329
288 288 291 291 296 296 295 295 300 301 300 300 301 302 303 304 304 306 311 317 319 326 332 330 332 330 329 331 335 346 348 347 347 347 345 342 343 342 341 343 343 338 337 336 334 333 330 327 328
293 291 291 295 298 295 293 294 296 299 297 299 300 300 302 303 306 307 308 315 316 318 320 323 325 327 327 327 326 332 342 343 345 348 348 346 346 344 341 340 340 339 337 337 336 333 330 329 327
294 291 291 294 298 296 293 293 296 297 298 299 300 301 301 302 304 306 308 314 316 316 317 321 323 322 324 324 327 328 328 331 336 343 349 350 346 346 343 340 339 338 338 337 335 333 333 333 331
294 291 292 292 297 296 293 291 293 298 299 301 301 301 302 303 304 305 313 313 316 318 318 316 319 319 321 323 321 320 321 322 324 326 331 339 341 345 347 344 341 339 339 339 337 333 333 332 331
292 297 296 295 291 286 293 284 289 294 297 299 300 300 300 303 304 309 312 311 311 314 319 321 319 322 320 319 318 318 318 316 318 322 327 327 331 336 341 342 345 342 341 340 339 339 335 334 330
293 298 296 295 289 286 289 284 288 293 294 296 299 301 303 303 307 310 311 309 310 312 318 316 317 316 315 323 321 320 319 319 320 321 321 322 325 330 333 335 338 340 338 332 333 336 331 333 334
299 295 292 290 287 281 286 286 285 290 293 296 301 304 306 304 308 309 308 307 307 312 312 311 312 314 314 314 316 315 314 314 318 320 320 323 322 323 326 331 328 331 326 328 330 330 328 331 332
295 288 281 280 280 280 290 287 288 295 301 302 303 303 303 304 305 305 304 304 306 307 308 311 309 310 312 313 313 314 313 314 317 319 320 320 322 323 324 326 329 327 328 327 324 324 325 330 334
291 288 282 277 278 281 291 285 291 301 305 306 305 303 303 302 302 303 304 304 304 307 307 309 308 309 310 311 312 315 315 317 318 315 316 320 321 323 323 325 325 328 334 333 328 327 328 328 326
295 289 292 286 286 281 286 291 298 304 303 305 304 304 303 302 303 304 305 304 305 306 307 308 308 308 312 313 313 312 314 316 314 316 318 320 321 322 319 318 317 321 326 329 329 329 329 327 325
297 299 289 287 279 277 284 287 290 297 298 301 301 302 304 304 302 301 302 303 303 304 307 308 308 310 310 311 310 311 314 315 314 313 318 317 317 317 317 316 315 314 319 323 324 323 324 323 322
293 291 292 291 289 281 277 284 296 298 299 299 302 303 302 304 303 302 302 302 303 303 304 306 308 309 308 309 309 309 311 311 311 314 317 316 316 316 316 315 314 314 313 315 317 317 318 318 320
294 291 292 286 283 287 280 283 300 298 297 299 299 304 305 307 305 305 304 302 301 302 304 304 308 307 309 310 309 309 310 310 310 313 313 314 315 315 315 315 314 314 314 313 312 314 318 318 317
Wind_Speed
8 8 3 4 4 5 3 7 3 9 3 2 4 12 5 3 4 4 3 13 18 15 12 11 15 19 19 17 17 15 15 16 16 15 15 14 14 14 13 13 13 12 13 12 12 12 11 10 8
6 6 4 2 4 2 6 6 9 6 4 3 8 8 8 4 6 8 6 11 15 15 12 9 13 18 20 19 17 16 15 15 15 15 14 14 14 14 13 12 11 12 11 10 11 11 10 9 7
6 3 3 4 2 5 6 3 6 22 5 5 5 5 6 6 9 9 11 16 14 13 12 9 12 16 18 19 17 17 16 16 15 15 15 14 13 12 12 11 10 10 11 11 12 11 11 9 7
4 5 4 2 7 6 7 12 8 16 6 6 8 6 5 1 5 9 18 17 13 9 13 13 12 13 16 18 18 16 17 17 16 15 14 14 13 12 11 10 10 10 10 10 10 9 8 8 6
3 3 1 2 7 7 9 6 10 12 2 3 3 5 4 5 18 20 18 16 16 10 10 12 14 13 15 16 18 17 16 17 17 16 14 14 13 12 11 11 10 10 10 10 9 9 8 7 6
3 3 1 5 7 7 7 5 8 7 1 6 10 8 3 12 18 16 17 17 17 16 12 11 13 14 14 15 16 17 17 16 16 17 19 16 13 12 11 11 11 10 10 10 11 10 10 9 9
5 4 5 3 4 8 11 4 7 10 5 2 11 6 4 6 13 16 15 14 14 14 15 12 11 12 14 13 13 14 14 15 15 13 13 14 17 16 14 13 13 12 11 11 11 11 11 11 11
4 5 3 5 4 11 3 14 3 6 3 5 6 6 5 4 13 10 14 13 12 12 13 13 11 9 7 7 13 14 14 14 14 15 14 14 13 13 16 16 15 15 14 13 12 12 12 11 11
3 3 5 6 7 7 5 5 5 6 3 3 3 9 8 6 13 13 10 7 8 8 10 13 15 14 13 8 9 11 15 14 15 14 15 12 6 9 11 11 13 16 16 16 15 14 14 13 12
5 5 9 6 1 3 11 4 7 6 8 6 6 5 7 8 5 14 13 10 11 12 12 12 12 14 14 11 12 10 9 8 8 9 9 6 6 6 8 10 14 15 15 15 15 15 14 11 4
6 7 5 6 6 4 6 9 4 3 1 1 2 2 5 5 4 3 11 17 18 13 10 15 16 14 15 10 8 7 5 5 5 6 7 5 4 4 6 4 6 5 12 5 8 7 5 5 4
2 7 7 12 10 5 6 5 2 5 7 5 6 3 6 6 4 5 1 8 8 12 13 8 8 9 9 8 8 8 9 10 8 9 10 7 5 5 5 5 5 4 3 4 4 3 4 5 5
6 9 8 15 13 7 6 9 8 6 7 6 4 3 3 3 2 1 4 2 8 12 15 14 13 14 12 10 8 8 7 7 9 10 11 9 7 6 6 5 5 6 4 5 5 4 5 5 6
6 11 14 10 14 6 6 8 2 6 6 8 6 7 6 5 5 1 4 7 6 6 14 13 14 10 8 6 8 7 7 9 8 9 10 13 10 9 8 8 8 8 8 8 8 8 8 8 5
6 5 8 10 10 8 8 7 7 9 8 9 9 8 9 9 5 6 7 7 1 5 6 13 11 10 8 8 7 8 9 6 6 7 10 13 12 11 10 7 8 9 7 8 5 5 3 4 5
3 3 2 7 6 8 9 12 8 11 9 11 11 8 7 7 8 7 8 3 4 7 8 8 8 6 7 7 3 3 5 5 6 6 5 11 12 12 10 9 9 8 6 6 5 5 6 8 7
6 2 5 8 6 3 7 10 14 10 8 10 10 10 9 8 7 8 2 9 8 9 8 6 7 8 7 1 2 4 4 2 5 5 7 9 11 11 11 9 9 5 6 5 6 5 7 7 8
5 3 5 7 5 4 11 16 19 11 9 11 11 9 10 9 11 9 9 9 10 10 10 8 6 6 6 4 2 3 2 4 4 6 6 9 9 11 10 9 8 5 5 7 5 10 4 3 5
6 5 8 10 11 4 7 6 13 10 4 8 7 6 7 8 10 8 10 7 6 6 9 9 10 7 5 3 3 0 2 3 4 4 7 6 8 10 10 8 6 5 9 12 12 7 8 8 4
9 10 11 9 11 7 3 6 6 4 7 9 9 10 11 7 8 9 6 9 6 9 7 8 9 8 4 4 3 2 0 2 3 4 7 6 5 6 8 9 7 7 7 10 9 9 8 7 7
10 9 7 7 7 2 2 6 4 6 4 6 7 8 9 12 12 6 9 9 9 10 10 9 10 9 7 7 4 2 2 3 4 4 4 4 5 6 8 9 6 8 8 12 9 5 10 11 5
14 7 7 4 2 6 5 7 5 7 8 6 10 9 10 12 7 8 14 10 10 9 8 9 8 8 5 6 5 4 3 1 3 2 2 5 4 4 6 7 9 10 6 8 6 1 6 6 8
6 5 4 2 4 1 6 3 9 2 7 9 10 10 12 14 13 18 16 11 9 8 9 8 8 6 4 5 4 2 0 2 3 4 5 4 3 2 6 6 7 6 7 7 9 10 12 15 6
6 2 5 4 4 1 6 5 5 4 6 8 11 10 13 8 14 14 11 10 8 8 8 8 9 6 6 6 5 4 3 4 3 5 4 4 3 3 4 6 6 6 5 8 10 14 16 13 11
4 6 4 5 3 6 5 4 8 10 5 3 7 9 6 9 9 10 9 8 9 9 8 8 8 7 7 7 5 3 3 4 5 4 3 5 4 4 6 6 6 5 8 8 9 9 9 9 7
7 9 6 5 4 5 4 4 5 3 5 4 9 7 9 9 7 7 7 7 7 8 8 8 8 7 6 5 4 3 2 2 2 2 2 1 1 2 5 5 7 9 8 9 8 8 9 9 8
3 3 6 4 1 2 4 7 4 7 10 8 8 7 7 6 6 7 7 7 8 8 9 9 8 7 8 8 6 5 4 5 5 4 3 3 3 1 1 1 3 6 8 8 9 7 10 9 9
5 2 1 4 1 4 4 5 5 3 7 10 11 8 8 3 3 4 3 6 6 7 8 8 9 10 9 8 7 6 7 6 5 4 4 3 4 4 4 3 2 3 5 6 5 5 5 6 8
6 3 4 3 5 4 2 6 5 5 4 6 5 2 2 3 1 3 2 4 6 5 7 8 8 8 8 8 8 8 7 7 7 7 7 6 4 5 4 5 5 5 5 5 5 6 8 10 8
2 1 4 5 4 2 4 7 7 4 1 3 3 6 8 6 6 5 5 4 6 8 7 8 8 8 9 10 7 8 8 8 8 7 8 7 7 5 6 6 5 5 6 6 7 7 5 8 9
Wind_Direction
323 318 298 26 43 62 281 276 287 301 19 242 22 98 135 81 140 200 328 136 131 142 148 161 152 135 133 131 129 126 125 121 120 119 120 118 116 115 114 115 120 126 130 131 129 129 128 123 117
326 320 24 54 94 63 280 253 263 248 286 36 105 109 62 33 67 111 89 134 139 141 140 153 158 142 140 137 137 135 133 130 131 130 130 129 127 126 123 123 126 129 129 129 130 133 132 126 122
314 196 74 115 150 182 231 230 7 309 332 352 119 72 95 114 128 143 126 138 140 139 135 147 159 150 145 142 144 144 142 141 140 140 139 138 137 135 133 132 132 136 140 143 146 146 144 143 144
341 4 7 112 244 248 233 280 281 275 314 2 139 57 46 115 124 145 136 137 132 140 138 147 156 156 151 147 148 151 149 148 147 146 144 144 145 143 140 140 141 146 151 152 150 146 147 152 155
31 65 355 247 261 255 271 279 277 262 47 13 84 110 67 44 111 128 140 144 142 138 140 146 158 160 158 156 153 156 157 155 153 151 151 152 152 152 152 152 155 155 156 158 158 157 165 174 181
358 96 71 227 253 277 277 314 306 220 286 122 88 106 74 133 130 152 152 156 150 147 149 153 161 164 165 163 162 162 162 161 163 163 159 159 159 160 162 162 163 164 167 171 172 172 180 186 192
147 100 223 234 269 302 279 343 319 311 197 309 142 112 147 130 164 159 154 150 151 151 153 158 164 169 166 165 164 164 165 165 166 168 168 167 166 168 171 173 174 176 180 183 184 186 191 196 200
145 112 246 228 183 266 353 329 340 338 244 117 115 154 160 181 135 149 148 147 151 157 159 157 155 155 158 164 165 167 170 171 170 169 172 173 178 183 181 181 184 185 187 191 194 198 199 206 211
103 80 233 237 176 269 5 334 298 281 299 76 138 132 164 166 111 108 118 141 145 166 174 168 163 162 164 160 174 173 175 176 177 178 179 177 183 189 195 198 203 193 194 195 198 203 208 209 214
130 160 227 217 219 314 313 340 307 14 4 6 77 85 147 151 154 140 157 172 176 180 187 183 177 174 162 166 171 178 181 182 183 182 181 182 187 195 199 211 212 210 209 205 204 208 214 218 215
194 200 226 265 259 196 259 300 240 335 21 18 50 62 31 15 359 268 159 177 191 195 184 187 183 177 167 168 163 173 175 179 188 184 180 191 198 206 202 204 211 228 223 215 215 218 218 214 226
235 238 225 264 264 261 258 244 246 188 249 179 202 224 131 98 80 21 331 153 178 179 200 185 180 175 185 155 169 174 177 177 185 191 190 182 196 208 234 211 216 189 229 263 257 227 209 232 233
179 254 249 252 251 232 262 257 236 223 261 301 257 205 176 129 132 176 290 207 194 195 188 181 174 182 189 164 170 176 189 190 189 191 191 190 197 207 204 216 221 195 198 200 215 229 252 247 227
221 228 250 263 256 236 214 258 227 232 234 275 284 255 222 209 213 152 323 296 114 194 180 173 179 160 174 174 167 176 189 195 189 194 199 197 198 206 205 214 207 218 200 209 221 218 219 235 228
238 252 268 254 239 233 182 274 240 255 269 265 267 247 235 227 232 226 228 251 162 180 145 169 149 139 150 167 173 183 194 185 204 209 204 204 204 203 209 208 213 221 219 208 210 224 236 242 236
353 96 280 274 213 232 151 254 253 241 235 247 258 261 234 242 229 240 239 172 130 148 141 134 144 151 159 177 175 212 179 171 202 206 196 212 213 214 211 215 218 214 207 205 205 204 216 228 227
8 240 259 282 206 233 165 254 256 245 218 232 241 241 211 223 240 248 236 145 148 141 132 129 139 157 170 148 354 320 269 188 223 210 221 218 216 215 222 229 232 190 194 194 205 211 211 224 233
225 230 271 251 264 188 270 253 244 231 206 230 244 218 203 206 222 213 166 159 144 139 143 138 141 160 185 185 221 255 258 271 231 222 216 215 221 216 217 232 228 203 196 203 209 224 217 215 222
232 235 250 267 267 209 234 278 252 229 187 227 229 245 229 223 229 214 161 157 120 104 129 141 135 154 142 133 140 61 246 242 243 246 247 225 215 220 224 222 224 202 223 223 216 206 197 217 181
241 249 264 276 268 191 321 303 298 256 220 198 211 222 228 232 236 236 140 151 156 143 142 132 132 133 115 109 125 135 325 297 273 275 297 284 247 242 239 221 228 225 235 235 225 217 234 231 178
242 217 232 215 279 214 51 319 321 296 277 243 216 226 229 222 222 202 138 145 147 143 144 142 145 146 145 137 115 66 10 351 351 340 333 346 344 288 263 259 218 223 226 244 242 231 232 236 213
256 248 227 251 327 268 127 274 273 260 279 261 263 260 229 224 206 138 144 156 157 155 149 140 130 128 127 102 99 132 154 234 236 256 264 306 318 317 327 291 252 223 221 238 263 6 285 271 254
237 322 283 261 246 83 319 83 270 323 305 289 289 278 263 236 163 155 157 154 145 139 140 133 118 100 94 117 122 106 276 241 291 295 299 306 305 302 299 291 294 262 192 191 214 215 229 256 229
277 332 21 50 100 24 242 156 286 270 264 305 297 292 274 171 152 142 141 138 130 131 133 135 132 136 143 146 151 163 222 273 300 296 311 323 335 339 316 300 278 285 223 221 237 238 223 231 231
184 64 342 348 346 217 240 270 221 263 320 291 294 325 59 114 118 129 131 127 133 140 145 142 144 153 162 152 158 186 251 275 265 279 298 327 340 351 337 339 317 278 264 244 252 264 256 255 229
181 152 157 215 213 246 336 260 234 262 294 6 99 72 52 68 103 121 136 137 143 149 157 154 163 162 170 166 171 163 186 203 243 269 293 334 40 19 39 4 358 338 300 265 250 244 244 224 210
332 130 193 107 53 92 231 297 318 16 21 29 85 102 122 131 147 155 163 153 156 166 179 177 175 184 186 175 174 194 212 194 210 232 195 156 159 194 35 79 323 336 329 305 269 260 262 257 251
114 265 11 24 228 254 293 238 219 62 77 45 18 26 38 2 225 198 171 171 186 183 189 193 193 191 194 192 188 202 207 211 219 238 238 219 191 171 170 194 219 275 304 310 308 291 276 267 256
6 22 30 107 140 194 191 253 214 134 127 137 158 49 3 71 36 284 303 273 245 228 205 211 212 202 205 201 203 203 210 222 220 218 220 228 203 207 200 197 213 247 255 277 271 255 258 266 263
160 49 87 135 266 210 170 257 213 146 248 253 269 195 182 257 254 251 250 250 254 259 237 218 215 209 214 208 198 206 215 214 222 225 226 221 223 211 202 215 215 242 255 249 248 262 259 238 248